Houston, TX

11:59 AM CDT on April 27, 2017 (GMT -0500)
Hobby

Weather History for KHOU - November, 2012

Change the Weather History Date:

Wednesday, November 14, 2012

  Actual Average Record
Temperature  
Mean Temperature 57 °F 63 °F  
Max Temperature 67 °F 73 °F 89 °F (1921)
Min Temperature 46 °F 53 °F 28 °F (1969)
Degree Days  
Heating Degree Days 8 5  
Month to date heating degree days 32 49  
Since 1 July heating degree days 72 79  
Growing Degree Days 6 (Base 50)    
Moisture  
Dew Point 33 °F    
Average Humidity 44    
Maximum Humidity 66    
Minimum Humidity 22    
Precipitation  
Precipitation 0.00 in 0.15 in 1.40 in (1998)
Month to date precipitation 0.57 2.11  
Year to date precipitation 39.39 43.80  
Sea Level Pressure  
Sea Level Pressure 30.35 in    
Wind  
Wind Speed 7 mph (NNE)    
Max Wind Speed 12 mph    
Max Gust Speed 15 mph    
Visibility 10 miles    
Events      
T = Trace of Precipitation, MM = Missing Value Source: NWS Daily Summary

Daily Weather History Graph

Daily Weather History Graph

Search for Another Location

Airport or City:

Trip Planner

Search our weather history database for the weather conditions in past years. The results will help you decide how hot, cold, wet, or windy it might be!

Date:

Astronomy

Nov. 14, 2012 Rise Set
Actual Time 6:45 AM CST 5:25 PM CST
Civil Twilight 6:19 AM CST 5:51 PM CST
Nautical Twilight 5:51 AM CST 6:19 PM CST
Astronomical Twilight 5:22 AM CST 6:48 PM CST
Moon 7:31 AM CST (11/14) 6:19 PM CST (11/14)
Length of Visible Light 11h 31m
Length of Day
10h 40m
New Moon, 1% of the Moon is Illuminated
Nov 14
New Moon
Nov 20
First Quarter
Nov 28
Full
Dec 6
Last Quarter
Dec 13
New

Hourly Weather History & Observations

Time (CST) Temp. Dew Point Humidity Pressure Visibility Wind Dir Wind Speed Gust Speed Precip Events Conditions
12:53 AM 53.1 °F 33.1 °F 47% 30.37 in 10.0 mi NE 8.1 mph - N/A   Mostly Cloudy
1:53 AM 53.1 °F 33.1 °F 47% 30.37 in 10.0 mi NE 11.5 mph - N/A   Overcast
2:53 AM 53.1 °F 32.0 °F 45% 30.36 in 10.0 mi NE 10.4 mph - N/A   Overcast
3:53 AM 52.0 °F 34.0 °F 50% 30.36 in 10.0 mi NNE 5.8 mph - N/A   Overcast
4:53 AM 52.0 °F 34.0 °F 50% 30.36 in 10.0 mi NE 9.2 mph - N/A   Overcast
5:53 AM 51.1 °F 33.1 °F 50% 30.37 in 10.0 mi ENE 8.1 mph - N/A   Overcast
6:53 AM 51.1 °F 34.0 °F 52% 30.38 in 10.0 mi ENE 6.9 mph - N/A   Mostly Cloudy
7:53 AM 52.0 °F 33.1 °F 49% 30.40 in 10.0 mi NE 9.2 mph - N/A   Overcast
8:53 AM 53.1 °F 32.0 °F 45% 30.41 in 10.0 mi NNE 11.5 mph - N/A   Overcast
9:53 AM 55.0 °F 32.0 °F 42% 30.43 in 10.0 mi NE 8.1 mph - N/A   Overcast
10:53 AM 55.9 °F 32.0 °F 40% 30.41 in 10.0 mi NNE 6.9 mph - N/A   Overcast
11:53 AM 57.9 °F 30.0 °F 35% 30.39 in 10.0 mi North 5.8 mph - N/A   Overcast
12:53 PM 60.1 °F 30.0 °F 32% 30.36 in 10.0 mi NNW 6.9 mph - N/A   Overcast
1:53 PM 62.1 °F 28.9 °F 29% 30.33 in 10.0 mi NNE 6.9 mph - N/A   Mostly Cloudy
2:53 PM 63.0 °F 28.9 °F 28% 30.31 in 10.0 mi North 4.6 mph - N/A   Scattered Clouds
3:53 PM 64.9 °F 30.0 °F 27% 30.30 in 10.0 mi NW 5.8 mph - N/A   Partly Cloudy
4:53 PM 63.0 °F 30.9 °F 30% 30.29 in 10.0 mi North 6.9 mph - N/A   Partly Cloudy
5:53 PM 57.0 °F 34.0 °F 42% 30.29 in 10.0 mi Calm Calm - N/A   Partly Cloudy
6:53 PM 57.0 °F 30.0 °F 36% 30.30 in 10.0 mi NNE 5.8 mph - N/A   Clear
7:53 PM 52.0 °F 34.0 °F 50% 30.32 in 10.0 mi Calm Calm - N/A   Clear
8:53 PM 50.0 °F 36.0 °F 59% 30.33 in 10.0 mi Calm Calm - N/A   Clear
9:53 PM 50.0 °F 35.1 °F 57% 30.33 in 10.0 mi ENE 3.5 mph - N/A   Clear
10:53 PM 48.9 °F 35.1 °F 59% 30.33 in 10.0 mi Calm Calm - N/A   Clear
11:53 PM 48.0 °F 36.0 °F 63% 30.31 in 10.0 mi Calm Calm - N/A   Clear